User: anonymous   Login
Location: Marne
(34.0056°N, 117.9064°W)
Time: 02:01:27
(UTC+00:00)
Language:

Cosmos 1610 Rocket - Orbit

View from above orbital plane
View from above orbital plane
View from above satellite
View from above satellite

Ground track
Ground track

The orbit data is extracted from the following two-line orbital elements,

1 15399U 84118B   20091.80989729  .00000020  00000-0  47718-5 0  9997
2 15399  82.9465 329.7790 0033526 186.1262 244.2313 13.76105063776095
Epoch (UTC): 31 March 2020 19:26:15
Eccentricity: 0.0033526
inclination: 82.9465°
perigee height: 953 km
apogee height: 1002 km
right ascension of ascending node: 329.7790°
argument of perigee: 186.1262°
revolutions per day: 13.76105063
mean anomaly at epoch: 244.2313°
orbit number at epoch: 77609

The dashed part of the orbit path shows where the satellite is in the earth's shadow,  

DLR